This is the latest recevied weather packets stored in our database for station/object G4ZMG. If no packets are shown the sender has not sent any weather packets the latest 10 day(s).
| Time | Temp. | Humidity | Pressure | Rain* | Wind** | Luminosity | Snow |
|---|---|---|---|---|---|---|---|
| 1777551606 | 21.11° C | 37% | 1019.5 hPa | 0 mm | - | 817 W/m² | - |
| 1777551004 | 21.11° C | 39% | 1019.5 hPa | 0 mm | - | 819 W/m² | - |
| 1777550405 | 20.56° C | 39% | 1019.5 hPa | 0 mm | - | 816 W/m² | - |
| 1777549803 | 20.56° C | 41% | 1019.7 hPa | 0 mm | - | 816 W/m² | - |
| 1777549204 | 20.56° C | 38% | 1019.7 hPa | 0 mm | - | 814 W/m² | - |
| 1777548604 | 20° C | 39% | 1019.9 hPa | 0 mm | - | 809 W/m² | - |
| 1777548004 | 19.44° C | 45% | 1019.9 hPa | 0 mm | - | 802 W/m² | - |
| 1777547404 | 19.44° C | 45% | 1019.9 hPa | 0 mm | - | 793 W/m² | - |
| 1777546811 | 18.89° C | 48% | 1020 hPa | 0 mm | - | 784 W/m² | - |
| 1777546203 | 18.89° C | 47% | 1020.1 hPa | 0 mm | - | 770 W/m² | - |
| 1777545603 | 18.33° C | 47% | 1020.1 hPa | 0 mm | - | 763 W/m² | - |
| 1777545004 | 18.33° C | 47% | 1020.1 hPa | 0 mm | - | 749 W/m² | - |
| 1777544404 | 18.33° C | 49% | 1020.2 hPa | 0 mm | - | 735 W/m² | - |
| 1777543803 | 18.33° C | 51% | 1020.3 hPa | 0 mm | - | 717 W/m² | - |
| 1777543205 | 17.78° C | 52% | 1020.3 hPa | 0 mm | - | 703 W/m² | - |
| 1777542603 | 17.22° C | 51% | 1020.4 hPa | 0 mm | - | 686 W/m² | - |
| 1777542003 | 16.67° C | 54% | 1020.3 hPa | 0 mm | - | 671 W/m² | - |
| 1777541404 | 16.67° C | 54% | 1020.4 hPa | 0 mm | - | 656 W/m² | - |
| 1777540803 | 16.11° C | 57% | 1020.4 hPa | 0 mm | - | 633 W/m² | - |
| 1777540204 | 15.56° C | 57% | 1020.4 hPa | 0 mm | - | 613 W/m² | - |
| 1777539607 | 15° C | 61% | 1020.6 hPa | 0 mm | - | 591 W/m² | - |
| 1777539004 | 14.44° C | 61% | 1020.6 hPa | 0 mm | - | 566 W/m² | - |
| 1777538424 | 14.44° C | 61% | 1020.6 hPa | 0 mm | - | 547 W/m² | - |
| 1777537836 | 13.89° C | 62% | 1020.9 hPa | 0 mm | - | 522 W/m² | - |
| 1777537225 | 13.89° C | 64% | 1020.9 hPa | 0 mm | - | 496 W/m² | - |
* Rain latest hour (hover to see other rain measurements)
** Current wind speed in m/s (hover to see current wind gust speed)